Location: Sternwarte-Kraichtal
(49.1689°N, 8.6996°E)
Time: 20:54:05
(UTC+02:00)

Vanguard 2 Rocket - Pass Details

Date: 03 June 2022
Orbit: 553 x 3323 km, 32.9° (Epoch: 02 July)

Event Time Altitude Azimuth Distance (km) Brightness Sun altitude
Rises 14:49:39 0° 254° (WSW) 7,171 11.8 58.2°
Reaches altitude 10° 14:54:40 10° 249° (WSW) 6,254 11.8 57.7°
Maximum altitude 15:13:03 46° 186° (S) 3,768 11.3 55.5°
Drops below altitude 10° 15:27:20 10° 120° (ESE) 4,946 10.6 53.7°
Sets 15:30:46 0° 114° (ESE) 5,624 10.8 53.3°
